Location: Mount Cross
(36.6390°N, 79.4878°W)
Time: 17:57:47
(UTC+00:00)

Courier 1B Rocket - Pass Details

Date: 23 March 2023
Orbit: 920 x 1202 km, 28.2° (Epoch: 08 June)

Event Time Altitude Azimuth Distance (km) Brightness Sun altitude
Rises 02:12:12 0° 234° (SW) 3,755 8.4 -31.8°
Reaches altitude 10° 02:15:17 10° 224° (SW) 2,758 7.5 -32.3°
Enters shadow 02:17:02 17° 214° (SSW) 2,261 6.9 -32.6°
Maximum altitude 02:20:55 30° 166° (SSE) 1,659 - -33.3°
Drops below altitude 10° 02:26:18 10° 107° (ESE) 2,635 - -34.2°
Sets 02:29:10 0° 97° (E) 3,561 - -34.7°
